Regional Weather Roundup
Issued by NWS

Home | Current Version | Previous Version | Text Only | Print | Product List | Glossary On
Versions: 1 2 3 4 5 6 7 8 9 10 11 12 13 14 15 16 17 18 19 20 21 22 23 24 25 26 27 28 29 30 31 32 33 34 35 36 37 38 39 40 41 42 43 44 45 46 47 48 49 50
993
ASUS43 KTOP 271659
RWRKS

WEATHER ROUNDUP FOR KANSAS
NATIONAL WEATHER SERVICE GOODLAND KS
1200 PM CDT SAT AUG 27 2016

NOTE:  "FAIR" INDICATES FEW OR NO CLOUDS BELOW 12,000 FEET WITH NO
SIGNIFICANT WEATHER AND/OR OBSTRUCTIONS TO VISIBILITY.

KSZ001>006-013>018-027>032-041>047-271800-
NORTHWEST KANSAS

CITY           SKY/WX    TMP DP  RH WIND       PRES   REMARKS
GOODLAND       CLOUDY    63  58  83 CALM      30.09F
HAYS           SUNNY     75  61  60 SE9       30.04F
HILL CITY      SUNNY     75  64  68 VRB6      30.05F
RUSSELL        SUNNY     77  63  61 SE9       30.03F
$$

KSZ061>065-074>080-084>089-271800-
SOUTHWEST KANSAS

CITY           SKY/WX    TMP DP  RH WIND       PRES   REMARKS
DODGE CITY     SUNNY     78  61  55 S10G22    30.06F
ELKHART          N/A     81  60  48 SW9         N/A
GARDEN CITY    SUNNY     77  62  59 S10       30.05F
GREAT BEND     SUNNY     79  63  57 E8        30.04S
LIBERAL        SUNNY     79  63  57 S10       30.06F
$$

KSZ066>073-081>083-090>101-271800-
SOUTHEAST KANSAS

CITY           SKY/WX    TMP DP  RH WIND       PRES   REMARKS
CHANUTE        CLOUDY    82  73  74 S6        30.04F
COFFEYVILLE    SUNNY     86  72  62 S10       30.03F
HUTCHINSON     SUNNY     82  67  60 SE7       30.04S
MEDICINE LODGE   N/A     78  70  76 SE6       30.07
NEWTON           N/A     81  70  69 SE6       30.05S
PARSONS        SUNNY     85  73  67 S7        30.05F
WICHITA INTL   MOSUNNY   83  71  67 SE10      30.03S
WICHITA JABRA  SUNNY     81  71  71 SE8       30.03F
WINFIELD       PTSUNNY   81  73  76 SE8       30.05F
$$

KSZ007>012-019>026-033>040-048>060-102>105-271800-
NORTHEAST KANSAS

CITY           SKY/WX    TMP DP  RH WIND       PRES   REMARKS
CONCORDIA      MOSUNNY   74  65  73 CALM      30.05S
EMPORIA        MOSUNNY   80  71  74 SE9       30.04S
LAWRENCE       MOSUNNY   82  72  71 SE8       30.03F
MANHATTAN      SUNNY     79  67  66 CALM      30.03F
OLATHE IND     MOSUNNY   81  72  74 S10       30.05S
OLATHE EXE     MOSUNNY   81  73  76 S7        30.04S
SALINA         SUNNY     78  68  71 CALM      30.04F
TOPEKA BILLARD MOSUNNY   81  71  71 SW3       30.03F
TOPEKA FORBES  MOSUNNY   82  71  69 VRB7      30.04S
$$




USA.gov is the U.S. government's official web portal to all federal, state and local government web resources and services.